Погода на Плайя Анкон

Куба     21°45′29″N   79°59′17″W
темп.,
°C
ветер,
м/с
пор.,
м/с
влажн.,
%
обл.,
%
осадки,
мм/ч
давл.,
гПа
погр.,
м
13 июня, вс
вс1323:00+26ссз1179100 1.1 101554
02:00+26ссв1179100 1.3 101490
05:00+26всв1180100 0.0 1014185
08:00+26всв2279100 0.0 1015306
11:00+28юв3471100 0.0 1015876
14:00+29ююв4469100 1.1 1015883
17:00+28ю3372100 0.3 1014694
20:00+27юв2378100 0.6 1014408
14 июня, пн
пн1423:00+26с1178100 5.0 1015116
02:00+26св2279100 5.1 1014173
05:00+26в1276100 0.0 1014203
08:00+27юв237699 0.0 1015540
11:00+28ююв457090 0.0 1017993
14:00+29ююв4473100 0.7 1016819
17:00+28юв4471100 0.1 1015687
20:00+27в2276100 0.1 1015190
15 июня, вт
вт1523:00+26св2378100 0.3 1017124
02:00+25всв4685100 3.1 1016206
05:00+26в4584100 1.8 1016314
08:00+26всв3484100 1.8 1017337
11:00+28вюв4572100 0.0 1017646
14:00+29ююв447075 0.1 1017673
17:00+29ююв43726 0.4 1016616
20:00+27ююз117892 2.2 1017121
16 июня, ср
ср1623:00+27ссв2279100 1.0 101875
02:00+26всв1281100 3.8 101770
05:00+26св3482100 0.3 1016212
08:00+26св2380100 0.3 1016148
11:00+28в4561100 0.0 1017580
14:00+29юв4564100 0.0 1016748
17:00+28ююв4469100 0.3 1015584
20:00+27всв127825 2.1 101680
17 июня, чт
чт1723:00+26св338198 0.8 1017128
02:00+26св3484100 0.9 1016138
05:00+25всв3586100 0.2 1015227
08:00+26всв458672 0.4 1015291
11:00+28в457314 0.1 1016803
14:00+29ююв55728 0.6 1015733
17:00+29юв44728 0.3 1014628
20:00+27вюв2378100 0.8 1015159